CHINASAT 2C

导读 | 星芒AI

CHINASAT 2C 是中国自主研发的一颗高通量通信卫星,由航天科技集团研制,于2023年成功发射。该卫星采用东方红四号增强型平台,主要提供宽带通信、广播电视和数据传输等服务,覆盖中国及周边地区。CHINASAT 2C 具备大容量、高效率和灵活组网能力,旨在提升我国通信基础设施水平,推动卫星通信技术的发展与应用。

基本信息
目录编号:
41021
目录名称:
CHINASAT 2C
国际标识:
2015-063A
轨道中心:
EARTH
卫星名称:
CHINASAT 2C
卫星全名:
--
卫星状态:
在轨 (已飞行3652 天)
发射日期:
2015-11-03 UTC
国别 :
中国 (CN)
星等 :
--
轨道信息
数据来源 国际轨道数据 AOE轨道数据
星历时间 2025-11-02T19:41:37+0800
11小时前
查看轨道信息
2025-11-03T03:00:00+0800
4小时前
查看轨道信息
半长轴 42164.476km 42164.532km
偏心率 0.0008221 0.0008324
轨道倾角 0.175° 0.176°
近地点辐角 138.785° 140.581°
升交点赤经 91.759° 91.642°
平近点角 90.353° 198.570°
近地点 35751.677km 35751.299km
远地点 35821.005km 35821.495km
周期 1436.084分钟 1436.087分钟
每日圈数 1.002727 1.002725
详细信息
使用方式:
暂无
2D轨道图
3D轨道图
轨道高度分析图
轨道倾角分析图
轨道综合分析图
查看轨道综合分析图